DELTA 1 DEB, 10755

Orbit data source: Space-Track

DELTA 1 DEB, 10755 is space debris in SSO originally from a launch on Thu, 29 Jul 1976 UTC launched from the Air Force Western Test Range (AFWTR). Debris objects in space refer to the collection of defunct objects orbiting the Earth. Examples of debris include non-operational satellites, rocket bodies, and fragments generated from explosions, collisions, or faulty payload assembly.

Loading next visibility...
Identifier
10755, 1976-077BC
Orbit
SSO
Country
Flag of USUS
Related business
Manufacturer
Unknown
Mission
Spacecraft
Bus & Motor
Unknown
Mass
Unknown
Launch date (UTC)
1976-07-29 (49 years ago)
Launch vehicle
Unknown
Launch site
Air Force Western Test Range (AFWTR)
Object type
Payload
Rocket body
Debris
Shape & HBR
Unknown shape, 0.2 m
Radar Cross Section
Small (<0.1 m²)

Expand to show TLE details & history
Last TLE update: 17 hours ago

TLE from 17 hours ago
0 DELTA 1 DEB
1 10755U 76077BC  25349.89336807 -.00000021  00000-0  22090-3 0  9992
2 10755 102.5559 322.0080 0081589 343.8720  74.1804 12.26075209210652
Epoch: 2025-12-15T21:26Z
TLE epoch observation values (Epoch: 2025-12-15T21:26:27.001Z)
Latitude
56.84138°
Longitude
-104.21983°
Altitude
1,558.286 km
Speed
7.101 km/s
True Right ascension
20h 08m 42s
True Declination
56° 41' 59"
Sunlit
Object was in daylight at epoch
Visualization orbit readout
Latitude
Unknown
Longitude
Unknown
Altitude
Unknown
Speed
Unknown
Apparent Right ascension
Unknown
Apparent Declination
Unknown
Sunlit
N/A
Visualization observer readout
Local Sidereal Time
12:38:57
Azimuth
Unknown
Elevation
Unknown
Doppler factor
Unknown
Orbital elements
Apogee altitude
1,628.614 km
Perigee altitude
1,499.018 km
Semi-major axis
7,941.953 km
Eccentricity
0.00816
Inclination
102.5559°
RAAN
322.008°
Arg. of periapsis
343.872°
True anomaly
75.0824°
Mean anomaly
74.1804°
Eccentric anomaly
74.63115°
Mean motion
3.06657 °/min
Orbital period
117.4 mins
BSTAR
0.0002209
Loading maneuver chart data...
Computing Atmospheric mass density...
Loading historical data...
Loading historical data...
Loading historical data...
Loading historical data...
Loading historical data...
Loading historical data...
Loading historical data...

Documentation

Showing up to 5 results
|